Flag for Germany Weather past 2 weeks in Wuppertal, North Rhine-Westphalia, Germany

Now
46 °F

Partly sunny.


Feels Like: 41 °F
Forecast: 36 / 45 °F
Wind: 13 mph from West

Location: Duesseldorf

Current Time: Apr 1, 2015 at 8:38:12 PM

Latest Report: Apr 1, 2015 at 8:20 PM


Visibility: N/A

Pressure: 30.07 "Hg

Humidity: 53%

Dew point: 30 °F

Location of WuppertalLocation

Historic Weather in Wuppertal — Graph

°F

Wuppertal temperature yesterday

Maximum temperature yesterday: 52 °F (at 4:20 AM)
Minimum temperature yesterday: 37 °F (at 10:20 PM)
Average temperature yesterday: 48 °F

Past Weeks' High & Low Weather Summary

 TemperatureHumidityPressure
High63 °F (Mar 18, 2:20 PM)100% (Mar 20, 2:50 AM)30.39 "Hg (Mar 20, 2:50 AM)
Low30 °F (Mar 20, 2:50 AM)41% (Mar 31, 4:50 PM)29.27 "Hg (Mar 29, 7:50 PM)
Average45 °F78%29.95 "Hg
* Reported Mar 17 6:20 PM — Apr 1 7:20 PM, Wuppertal, Weather by CustomWeather, © 2015

Note: Actual official high and low records may vary slightly from our data, if they occured in-between our weather recording intervals... More about our weather records

Advertising

Wuppertal weather history for previous 24 hours

 ConditionsComfort  
Time TempWeatherWind HumidityBarometerVisibility
7:20 PM
Wed, Apr 1
46 °FPartly sunny.16 mph53%30.07 "HgN/A
6:50 PM46 °FPartly sunny.20 mph53%30.07 "HgN/A
6:20 PM46 °FSprinkles. Partly sunny.18 mph62%30.07 "HgN/A
5:50 PM46 °FSprinkles. Partly sunny.25 mph62%30.07 "HgN/A
5:20 PM46 °FSprinkles. Scattered clouds.20 mph62%30.07 "HgN/A
4:50 PM45 °FSprinkles. Scattered clouds.18 mph66%30.07 "HgN/A
4:20 PM48 °FRain showers. Scattered clouds.29 mph54%30.07 "HgN/A
3:50 PM48 °FSprinkles. Scattered clouds.28 mph54%30.07 "HgN/A
3:20 PM45 °FRain showers. Scattered clouds.14 mph76%30.07 "HgN/A
2:50 PM39 °FRain showers. Broken clouds.28 mph81%30.07 "Hg5 mi
2:20 PM41 °FSprinkles. Scattered clouds.17 mph87%30.07 "HgN/A
1:50 PM45 °FRain showers. Broken clouds.22 mph71%30.07 "HgN/A
1:20 PM45 °FSprinkles. Broken clouds.17 mph71%30.04 "HgN/A
12:50 PM41 °FSprinkles. Partly sunny.13 mph81%30.07 "HgN/A
12:20 PM43 °FSprinkles. Broken clouds.23 mph76%30.07 "HgN/A
11:50 AM43 °FScattered clouds.18 mph76%30.04 "HgN/A
11:20 AM43 °FPartly sunny.18 mph76%30.04 "HgN/A
10:50 AM41 °FScattered showers. Partly sunny.17 mph81%30.04 "HgN/A
10:20 AM41 °FScattered showers. Scattered clouds.16 mph81%30.04 "HgN/A
9:50 AM41 °FScattered clouds.18 mph76%30.01 "HgN/A
9:20 AM39 °FScattered showers. Scattered clouds.17 mph81%30.01 "HgN/A
8:50 AM39 °FScattered showers. Partly sunny.15 mph81%30.01 "HgN/A
8:20 AM39 °FSprinkles. Broken clouds.14 mph81%29.98 "HgN/A
7:50 AM39 °FSprinkles. Passing clouds.10 mph81%29.98 "HgN/A
7:20 AM39 °FSprinkles. Passing clouds.15 mph75%29.95 "HgN/A
6:50 AM39 °FSprinkles. Partly cloudy.14 mph75%29.95 "HgN/A
6:20 AM41 °FSprinkles. Partly cloudy.22 mph70%29.92 "HgN/A
5:50 AM41 °FPassing clouds.20 mph66%29.89 "HgN/A
5:20 AM41 °FPassing clouds.20 mph66%29.89 "HgN/A
4:50 AM41 °FPassing clouds.18 mph66%29.89 "HgN/A
4:20 AM43 °FPartly cloudy.21 mph61%29.89 "HgN/A
3:50 AM43 °FPartly cloudy.24 mph61%29.86 "HgN/A
3:20 AM43 °FPassing clouds.15 mph66%29.86 "HgN/A
2:50 AM43 °FPassing clouds.17 mph61%29.86 "HgN/A
2:20 AM41 °FPassing clouds.20 mph70%29.86 "HgN/A
1:50 AM41 °FSprinkles. Passing clouds.22 mph76%29.86 "HgN/A
1:20 AM41 °FPassing clouds.16 mph76%29.83 "HgN/A
12:50 AM41 °FPassing clouds.17 mph76%29.83 "HgN/A
12:20 AM41 °FPassing clouds.15 mph76%29.83 "HgN/A
11:50 PM
Tue, Mar 31
41 °FClear.16 mph70%29.83 "Hg10 mi
11:20 PM39 °FPassing clouds.16 mph81%29.83 "HgN/A
10:50 PM37 °FPartly cloudy.13 mph87%29.80 "HgN/A
10:20 PM37 °FThundershowers. Passing clouds.15 mph87%29.80 "HgN/A
9:50 PM41 °FPassing clouds.9 mph81%29.80 "HgN/A
9:20 PM39 °FPassing clouds.13 mph87%29.80 "HgN/A
8:50 PM43 °FSnow flurries. Broken clouds.16 mph76%29.80 "HgN/A
8:20 PM45 °FStrong thunderstorms. Partly sunny.21 mph76%29.77 "HgN/A
Weather by CustomWeather, © 2015

See weather overviewHow to use our weather pages